| time (UTC) | temp C | wind direction | speed KPH | gust KPH | rain 1hr cm | rain 24hr cm | rain mn cm | humidity % | barometer mb |
| 20260506083412 | 14 | 360 | 0.0 | 0.0 | 0.00 | 0.00 | 0.00 | 87 | 1019.9 |
| 20260506081911 | 14 | 360 | 0.0 | 0.0 | 0.00 | 0.00 | 0.00 | 87 | 1020.0 |
| 20260506080411 | 14 | 360 | 0.0 | 0.0 | 0.00 | 0.00 | 0.00 | 87 | 1019.9 |
| 20260506073409 | 14 | 360 | 0.0 | 0.0 | 0.00 | 0.00 | 0.00 | 87 | 1019.7 |
| 20260506071907 | 14 | 360 | 0.0 | 0.0 | 0.00 | 0.00 | 0.00 | 86 | 1019.5 |
| 20260506070407 | 14 | 360 | 0.0 | 0.0 | 0.00 | 0.00 | 0.00 | 86 | 1019.4 |
| 20260506061903 | 14 | 360 | 0.0 | 0.0 | 0.00 | 0.00 | 0.23 | 86 | 1019.3 |
| 20260506060402 | 14 | 360 | 0.0 | 0.0 | 0.00 | 0.00 | 0.23 | 86 | 1019.2 |
| 20260506050358 | 14 | 360 | 0.0 | 0.0 | 0.00 | 0.00 | 0.23 | 85 | 1018.9 |
| 20260506044857 | 14 | 360 | 0.0 | 0.0 | 0.00 | 0.00 | 0.23 | 85 | 1018.8 |
| 20260506043356 | 14 | 360 | 0.0 | 0.0 | 0.00 | 0.00 | 0.23 | 84 | 1018.7 |
| 20260506041855 | 14 | 360 | 0.0 | 0.0 | 0.00 | 0.00 | 0.23 | 84 | 1018.4 |
| 20260506040354 | 14 | 360 | 0.0 | 0.0 | 0.00 | 0.00 | 0.23 | 84 | 1018.2 |
| 20260506034853 | 14 | 360 | 0.0 | 0.0 | 0.00 | 0.00 | 0.23 | 83 | 1018.1 |
| 20260506033352 | 15 | 360 | 0.0 | 1.6 | 0.00 | 0.00 | 0.23 | 82 | 1017.9 |
| 20260506031851 | 15 | 360 | 0.0 | 1.6 | 0.00 | 0.00 | 0.23 | 82 | 1017.8 |
| 20260506030350 | 15 | 360 | 0.0 | 1.6 | 0.00 | 0.00 | 0.23 | 81 | 1017.6 |
| 20260506024849 | 15 | 360 | 0.0 | 0.0 | 0.00 | 0.00 | 0.23 | 81 | 1017.5 |
| 20260506023348 | 15 | 360 | 0.0 | 3.2 | 0.00 | 0.00 | 0.23 | 80 | 1017.3 |
| 20260506021847 | 15 | 360 | 0.0 | 3.2 | 0.00 | 0.00 | 0.23 | 80 | 1017.1 |
| 20260506020346 | 15 | 360 | 1.6 | 4.8 | 0.00 | 0.00 | 0.23 | 79 | 1017.4 |
| 20260506014845 | 15 | 360 | 1.6 | 4.8 | 0.00 | 0.00 | 0.23 | 79 | 1017.3 |
| 20260506013344 | 16 | 360 | 1.6 | 4.8 | 0.00 | 0.00 | 0.23 | 79 | 1017.3 |
| 20260506011843 | 16 | 360 | 1.6 | 8.0 | 0.00 | 0.00 | 0.23 | 78 | 1017.2 |
| 20260506010342 | 16 | 360 | 1.6 | 6.4 | 0.00 | 0.00 | 0.23 | 79 | 1017.1 |
| 20260506004841 | 16 | 80 | 3.2 | 9.7 | 0.00 | 0.00 | 0.23 | 78 | 1017.2 |
| 20260506003340 | 16 | 360 | 1.6 | 4.8 | 0.00 | 0.00 | 0.23 | 78 | 1017.0 |
| 20260506000338 | 16 | 360 | 0.0 | 4.8 | 0.00 | 0.00 | 0.23 | 77 | 1017.0 |
| 20260505234837 | 16 | 360 | 1.6 | 4.8 | 0.00 | 0.00 | 0.23 | 76 | 1017.1 |
| 20260505233336 | 17 | 360 | 1.6 | 6.4 | 0.00 | 0.00 | 0.23 | 75 | 1017.1 |
| 20260505231835 | 17 | 175 | 1.6 | 6.4 | 0.00 | 0.00 | 0.23 | 75 | 1017.2 |
| 20260505230334 | 17 | 130 | 0.0 | 8.0 | 0.00 | 0.00 | 0.23 | 74 | 1017.1 |
| 20260505224833 | 17 | 130 | 0.0 | 14.5 | 0.00 | 0.00 | 0.23 | 73 | 1017.1 |
| 20260505223331 | 18 | 163 | 1.6 | 6.4 | 0.00 | 0.00 | 0.23 | 72 | 1017.1 |
| 20260505221831 | 18 | 292 | 1.6 | 8.0 | 0.00 | 0.00 | 0.23 | 72 | 1017.1 |
| 20260505220330 | 18 | 268 | 0.0 | 11.3 | 0.00 | 0.00 | 0.23 | 73 | 1017.1 |
| 20260505214828 | 17 | 77 | 3.2 | 9.7 | 0.00 | 0.00 | 0.23 | 71 | 1017.1 |
| 20260505213327 | 18 | 41 | 3.2 | 9.7 | 0.00 | 0.00 | 0.23 | 72 | 1017.3 |
| 20260505211827 | 18 | 9 | 4.8 | 12.9 | 0.00 | 0.00 | 0.23 | 72 | 1017.4 |
| 20260505210325 | 18 | 119 | 3.2 | 14.5 | 0.00 | 0.00 | 0.23 | 72 | 1017.4 |
| 20260505204824 | 18 | 223 | 3.2 | 14.5 | 0.00 | 0.00 | 0.23 | 70 | 1017.2 |
| 20260505203323 | 18 | 299 | 4.8 | 12.9 | 0.00 | 0.00 | 0.23 | 72 | 1017.3 |
| 20260505201823 | 18 | 355 | 6.4 | 9.7 | 0.00 | 0.00 | 0.23 | 75 | 1017.4 |
| 20260505200321 | 18 | 146 | 1.6 | 12.9 | 0.00 | 0.00 | 0.20 | 77 | 1017.3 |
| 20260505194820 | 17 | 54 | 4.8 | 11.3 | 0.00 | 0.00 | 0.20 | 82 | 1017.4 |
| 20260505193319 | 16 | 291 | 6.4 | 8.0 | 0.00 | 0.00 | 0.20 | 85 | 1017.5 |
| 20260505191818 | 16 | 360 | 3.2 | 8.0 | 0.00 | 0.00 | 0.20 | 88 | 1017.5 |
| 20260505184816 | 15 | 360 | 1.6 | 6.4 | 0.00 | 0.00 | 0.20 | 90 | 1017.4 |
| 20260505183315 | 15 | 360 | 4.8 | 6.4 | 0.00 | 0.00 | 0.20 | 90 | 1017.4 |
| 20260505181814 | 15 | 360 | 4.8 | 8.0 | 0.00 | 0.00 | 0.20 | 91 | 1017.3 |
| 20260505173311 | 14 | 360 | 1.6 | 4.8 | 0.00 | 0.00 | 0.20 | 91 | 1017.0 |
| 20260505171810 | 14 | 360 | 0.0 | 3.2 | 0.00 | 0.00 | 0.20 | 91 | 1016.9 |
| 20260505170309 | 13 | 360 | 3.2 | 3.2 | 0.00 | 0.00 | 0.20 | 91 | 1016.7 |
| 20260505164808 | 13 | 360 | 0.0 | 3.2 | 0.00 | 0.00 | 0.20 | 91 | 1016.8 |
| 20260505163307 | 13 | 360 | 0.0 | 3.2 | 0.00 | 0.00 | 0.20 | 91 | 1016.7 |
| 20260505161806 | 12 | 360 | 0.0 | 1.6 | 0.00 | 0.00 | 0.20 | 91 | 1016.7 |
| 20260505153303 | 12 | 360 | 0.0 | 1.6 | 0.00 | 0.00 | 0.20 | 91 | 1016.5 |
| 20260505151802 | 12 | 360 | 0.0 | 0.0 | 0.00 | 0.00 | 0.20 | 91 | 1016.3 |
| 20260505150301 | 12 | 360 | 0.0 | 0.0 | 0.00 | 0.00 | 0.20 | 91 | 1016.2 |
| 20260505130253 | 12 | 360 | 0.0 | 0.0 | 0.00 | 0.00 | 0.20 | 90 | 1015.7 |
| 20260505124752 | 12 | 360 | 0.0 | 0.0 | 0.00 | 0.00 | 0.20 | 90 | 1015.8 |
| 20260505123251 | 12 | 360 | 0.0 | 0.0 | 0.00 | 0.00 | 0.20 | 90 | 1015.8 |
| 20260505120248 | 12 | 360 | 0.0 | 1.6 | 0.00 | 0.00 | 0.20 | 90 | 1015.7 |
| 20260505114747 | 12 | 360 | 0.0 | 1.6 | 0.00 | 0.00 | 0.20 | 90 | 1015.8 |
| 20260505113247 | 12 | 360 | 0.0 | 0.0 | 0.00 | 0.00 | 0.20 | 90 | 1016.0 |
| 20260505110245 | 12 | 360 | 0.0 | 0.0 | 0.00 | 0.00 | 0.20 | 89 | 1015.8 |
| 20260505101741 | 12 | 360 | 0.0 | 0.0 | 0.00 | 0.00 | 0.20 | 89 | 1015.8 |
| 20260505094739 | 12 | 33 | 0.0 | 0.0 | 0.00 | 0.00 | 0.18 | 88 | 1015.9 |
| 20260505093238 | 12 | 33 | 0.0 | 0.0 | 0.00 | 0.00 | 0.18 | 88 | 1016.1 |
| 20260505091737 | 12 | 33 | 0.0 | 1.6 | 0.00 | 0.00 | 0.18 | 88 | 1016.3 |
| 20260505090236 | 12 | 33 | 0.0 | 1.6 | 0.00 | 0.00 | 0.15 | 87 | 1016.3 |
| 20260505084735 | 12 | 360 | 0.0 | 0.0 | 0.00 | 0.00 | 0.13 | 87 | 1016.3 |